| time (UTC) | temp F | wind direction | speed knots | gust knots | rain 1hr in | rain 24hr in | rain mn in | humidity % | barometer mb |
| 20260503173535 | 53 | 220 | 3.5 | 7.8 | 0.00 | 0.00 | 0.00 | 47 | 1016.5 |
| 20260503172516 | 52 | 224 | 6.1 | 9.6 | 0.00 | 0.00 | 0.00 | 50 | 1016.7 |
| 20260503171516 | 52 | 226 | 7.0 | 15.6 | 0.00 | 0.00 | 0.00 | 48 | 1017.1 |
| 20260503170516 | 52 | 229 | 6.1 | 9.6 | 0.00 | 0.00 | 0.00 | 48 | 1017.0 |
| 20260503150518 | 47 | 216 | 4.3 | 9.6 | 0.00 | 0.00 | 0.00 | 59 | 1017.7 |
| 20260503130517 | 43 | 228 | 4.3 | 8.7 | 0.00 | 0.00 | 0.00 | 67 | 1017.7 |
| 20260503110515 | 32 | 0.0 | 0.0 | 0.00 | 0.00 | 0.00 | 96 | 1017.7 | |
| 20260503081518 | 32 | 0.0 | 0.0 | 0.00 | 0.00 | 0.00 | 92 | 1016.6 | |
| 20260503080519 | 33 | 0.0 | 0.0 | 0.00 | 0.00 | 0.00 | 91 | 1016.5 | |
| 20260503072519 | 36 | 0.0 | 0.0 | 0.00 | 0.00 | 0.00 | 87 | 1016.3 | |
| 20260503071540 | 36 | 240 | 0.0 | 0.0 | 0.00 | 0.00 | 0.00 | 86 | 1016.1 |
| 20260503070535 | 36 | 324 | 0.0 | 0.9 | 0.00 | 0.00 | 0.00 | 85 | 1016.0 |
| 20260503054536 | 38 | 267 | 0.9 | 2.6 | 0.00 | 0.00 | 0.00 | 83 | 1015.9 |
| 20260503053521 | 38 | 241 | 1.7 | 1.7 | 0.00 | 0.00 | 0.00 | 83 | 1015.9 |
| 20260503052521 | 38 | 236 | 0.9 | 2.6 | 0.00 | 0.00 | 0.00 | 83 | 1015.9 |
| 20260503051541 | 38 | 230 | 0.9 | 1.7 | 0.00 | 0.00 | 0.00 | 83 | 1015.9 |
| 20260503050551 | 38 | 239 | 0.9 | 2.6 | 0.00 | 0.00 | 0.00 | 83 | 1016.0 |
| 20260503045521 | 38 | 257 | 0.0 | 0.9 | 0.00 | 0.00 | 0.00 | 82 | 1016.0 |
| 20260503044522 | 37 | 256 | 0.0 | 1.7 | 0.00 | 0.00 | 0.00 | 83 | 1016.1 |
| 20260503043606 | 37 | 0.0 | 0.0 | 0.00 | 0.00 | 0.00 | 85 | 1016.2 | |
| 20260503042522 | 37 | 0.0 | 0.0 | 0.00 | 0.00 | 0.00 | 85 | 1016.2 | |
| 20260503041522 | 37 | 0.0 | 0.0 | 0.00 | 0.00 | 0.00 | 83 | 1016.1 | |
| 20260503040522 | 37 | 230 | 0.0 | 0.9 | 0.00 | 0.00 | 0.00 | 84 | 1016.2 |
| 20260503035522 | 37 | 234 | 0.0 | 1.7 | 0.00 | 0.00 | 0.00 | 83 | 1016.2 |
| 20260503034523 | 37 | 0.0 | 0.0 | 0.00 | 0.00 | 0.00 | 84 | 1016.2 | |
| 20260503033543 | 37 | 121 | 0.0 | 0.9 | 0.00 | 0.00 | 0.00 | 84 | 1016.2 |
| 20260503032523 | 37 | 0.0 | 0.0 | 0.00 | 0.00 | 0.00 | 84 | 1016.2 | |
| 20260503031518 | 37 | 0.0 | 0.0 | 0.00 | 0.00 | 0.00 | 83 | 1016.2 | |
| 20260503030518 | 37 | 0.0 | 0.0 | 0.00 | 0.00 | 0.00 | 83 | 1016.3 | |
| 20260503025518 | 38 | 228 | 0.0 | 1.7 | 0.00 | 0.00 | 0.00 | 81 | 1016.3 |
| 20260503024535 | 38 | 272 | 0.0 | 1.7 | 0.00 | 0.00 | 0.00 | 81 | 1016.4 |
| 20260503023535 | 38 | 0.0 | 0.0 | 0.00 | 0.00 | 0.00 | 79 | 1016.5 | |
| 20260503022516 | 39 | 9 | 0.0 | 0.9 | 0.00 | 0.00 | 0.00 | 79 | 1016.4 |
| 20260503021515 | 39 | 95 | 0.9 | 2.6 | 0.00 | 0.00 | 0.00 | 79 | 1016.4 |
| 20260503020516 | 39 | 303 | 0.9 | 3.5 | 0.00 | 0.00 | 0.00 | 79 | 1016.4 |
| 20260503015539 | 39 | 48 | 0.9 | 2.6 | 0.00 | 0.00 | 0.00 | 80 | 1016.3 |
| 20260503014516 | 39 | 0.0 | 0.0 | 0.00 | 0.00 | 0.00 | 81 | 1016.3 | |
| 20260503013517 | 40 | 302 | 0.0 | 1.7 | 0.00 | 0.00 | 0.00 | 80 | 1016.3 |
| 20260503012516 | 40 | 192 | 0.0 | 1.7 | 0.00 | 0.00 | 0.00 | 80 | 1016.2 |
| 20260503011537 | 40 | 314 | 0.0 | 1.7 | 0.00 | 0.01 | 0.00 | 78 | 1016.0 |
| 20260503010517 | 40 | 67 | 0.9 | 3.5 | 0.00 | 0.02 | 0.00 | 78 | 1015.9 |
| 20260503005517 | 40 | 5 | 0.0 | 2.6 | 0.00 | 0.03 | 0.00 | 78 | 1015.9 |
| 20260503004517 | 40 | 8 | 0.9 | 2.6 | 0.00 | 0.04 | 0.00 | 77 | 1015.8 |
| 20260503003537 | 40 | 262 | 0.0 | 3.5 | 0.00 | 0.04 | 0.00 | 77 | 1015.8 |
| 20260503002538 | 41 | 87 | 0.9 | 4.3 | 0.00 | 0.04 | 0.00 | 75 | 1015.6 |
| 20260503001517 | 42 | 70 | 0.9 | 3.5 | 0.00 | 0.04 | 0.00 | 74 | 1015.6 |
| 20260503000518 | 42 | 98 | 0.9 | 2.6 | 0.00 | 0.04 | 0.00 | 72 | 1015.5 |
| 20260502235515 | 42 | 29 | 1.7 | 4.3 | 0.00 | 0.04 | 0.00 | 73 | 1015.4 |
| 20260502234515 | 43 | 102 | 1.7 | 5.2 | 0.00 | 0.04 | 0.00 | 73 | 1015.2 |
| 20260502233515 | 43 | 87 | 0.9 | 3.5 | 0.00 | 0.04 | 0.00 | 72 | 1015.1 |
| 20260502232516 | 43 | 90 | 0.9 | 5.2 | 0.00 | 0.04 | 0.00 | 71 | 1014.9 |
| 20260502231516 | 44 | 79 | 1.7 | 6.1 | 0.00 | 0.05 | 0.00 | 69 | 1014.8 |
| 20260502230516 | 44 | 79 | 1.7 | 4.3 | 0.00 | 0.05 | 0.00 | 69 | 1014.7 |
| 20260502225536 | 44 | 156 | 0.9 | 2.6 | 0.00 | 0.06 | 0.00 | 68 | 1014.7 |
| 20260502224537 | 45 | 114 | 0.9 | 3.5 | 0.00 | 0.07 | 0.00 | 67 | 1014.7 |
| 20260502223516 | 45 | 72 | 0.9 | 5.2 | 0.00 | 0.07 | 0.00 | 67 | 1014.6 |
| 20260502222607 | 46 | 95 | 0.9 | 5.2 | 0.00 | 0.08 | 0.00 | 65 | 1014.5 |
| 20260502221516 | 47 | 269 | 1.7 | 3.5 | 0.00 | 0.08 | 0.00 | 64 | 1014.3 |
| 20260502220517 | 47 | 123 | 2.6 | 4.3 | 0.00 | 0.08 | 0.00 | 60 | 1014.1 |
| 20260502215517 | 47 | 52 | 1.7 | 5.2 | 0.00 | 0.08 | 0.00 | 59 | 1014.0 |
| 20260502214517 | 48 | 242 | 2.6 | 6.1 | 0.00 | 0.09 | 0.00 | 57 | 1013.9 |
| 20260502213532 | 48 | 240 | 2.6 | 7.8 | 0.00 | 0.09 | 0.00 | 58 | 1013.8 |
| 20260502212538 | 48 | 236 | 2.6 | 6.1 | 0.00 | 0.09 | 0.00 | 58 | 1013.8 |
| 20260502211518 | 48 | 211 | 1.7 | 4.3 | 0.00 | 0.09 | 0.00 | 59 | 1013.7 |
| 20260502210518 | 48 | 46 | 1.7 | 7.8 | 0.00 | 0.09 | 0.00 | 59 | 1013.7 |
| 20260502205518 | 48 | 0.0 | 0.0 | 0.00 | 0.09 | 0.00 | 59 | 1013.7 | |
| 20260502204556 | 48 | 238 | 1.7 | 4.3 | 0.00 | 0.09 | 0.00 | 58 | 1013.7 |
| 20260502203515 | 48 | 187 | 1.7 | 4.3 | 0.00 | 0.09 | 0.00 | 59 | 1013.8 |
| 20260502202516 | 48 | 235 | 3.5 | 7.0 | 0.00 | 0.09 | 0.00 | 58 | 1013.8 |
| 20260502201516 | 49 | 233 | 2.6 | 6.1 | 0.00 | 0.09 | 0.00 | 59 | 1013.7 |
| 20260502200536 | 49 | 223 | 2.6 | 6.1 | 0.00 | 0.09 | 0.00 | 59 | 1013.8 |
| 20260502195556 | 49 | 207 | 2.6 | 5.2 | 0.00 | 0.09 | 0.00 | 57 | 1013.7 |
| 20260502194516 | 49 | 270 | 2.6 | 6.1 | 0.00 | 0.09 | 0.00 | 54 | 1013.7 |
| 20260502193517 | 49 | 244 | 2.6 | 7.8 | 0.00 | 0.09 | 0.00 | 56 | 1013.8 |
| 20260502192517 | 49 | 176 | 2.6 | 6.1 | 0.00 | 0.09 | 0.00 | 55 | 1014.0 |
| 20260502191517 | 50 | 150 | 1.7 | 6.1 | 0.00 | 0.09 | 0.00 | 56 | 1014.1 |
| 20260502190515 | 50 | 84 | 2.6 | 7.8 | 0.00 | 0.09 | 0.00 | 57 | 1014.1 |
| 20260502185516 | 49 | 224 | 3.5 | 7.8 | 0.00 | 0.09 | 0.00 | 59 | 1014.2 |
| 20260502184516 | 50 | 212 | 3.5 | 7.8 | 0.00 | 0.09 | 0.00 | 57 | 1014.3 |
| 20260502183516 | 50 | 0.0 | 0.0 | 0.00 | 0.09 | 0.00 | 54 | 1014.1 | |
| 20260502182516 | 49 | 246 | 1.7 | 6.1 | 0.00 | 0.09 | 0.00 | 57 | 1014.2 |
| 20260502181516 | 49 | 237 | 3.5 | 7.8 | 0.00 | 0.09 | 0.00 | 58 | 1014.5 |
| 20260502180535 | 48 | 97 | 2.6 | 6.1 | 0.00 | 0.09 | 0.00 | 58 | 1014.6 |